Wetterdaten: Dienstag, 20.04.2010
Datum Zeit Temp. I. Temp. A. Boden 5 cm Feuchte A. Sonne Luftdruck Regen Wind
20.04.2010 00:01 21,6 C 9,9 C 7,0 C 64 % 0 % 1007 hPa 0,0 l/m 0,0 km/h (0 Bft)
20.04.2010 00:04 21,5 C 9,8 C 7,1 C 64 % 0 % 1008 hPa 0,0 l/m 0,0 km/h (0 Bft)
20.04.2010 00:07 21,6 C 9,7 C 7,0 C 64 % 0 % 1007 hPa 0,0 l/m 0,0 km/h (0 Bft)
20.04.2010 00:10 21,6 C 9,6 C 7,2 C 64 % 0 % 1007 hPa 0,0 l/m 0,0 km/h (0 Bft)
20.04.2010 00:13 21,5 C 9,5 C 7,1 C 64 % 0 % 1008 hPa 0,0 l/m 0,0 km/h (0 Bft)
20.04.2010 00:16 21,5 C 9,5 C 7,0 C 64 % 0 % 1008 hPa 0,0 l/m 0,0 km/h (0 Bft)
20.04.2010 00:19 21,6 C 9,4 C 7,1 C 65 % 0 % 1008 hPa 0,0 l/m 0,0 km/h (0 Bft)
20.04.2010 00:22 21,5 C 9,4 C 7,1 C 65 % 0 % 1008 hPa 0,0 l/m 0,0 km/h (0 Bft)
20.04.2010 00:25 21,5 C 9,3 C 7,0 C 66 % 0 % 1008 hPa 0,0 l/m 0,0 km/h (0 Bft)
20.04.2010 00:28 21,5 C 9,3 C 7,2 C 66 % 0 % 1008 hPa 0,0 l/m 0,0 km/h (0 Bft)
20.04.2010 00:31 21,5 C 9,2 C 7,0 C 66 % 0 % 1008 hPa 0,0 l/m 0,0 km/h (0 Bft)
20.04.2010 00:34 21,6 C 9,2 C 6,9 C 66 % 0 % 1008 hPa 0,0 l/m 0,0 km/h (0 Bft)
20.04.2010 00:37 21,6 C 9,0 C 6,7 C 66 % 0 % 1008 hPa 0,0 l/m 0,0 km/h (0 Bft)
20.04.2010 00:40 21,5 C 9,0 C 6,7 C 66 % 0 % 1007 hPa 0,0 l/m 0,0 km/h (0 Bft)
20.04.2010 00:43 21,5 C 8,9 C 6,7 C 67 % 0 % 1007 hPa 0,0 l/m 0,0 km/h (0 Bft)
20.04.2010 00:46 21,5 C 8,9 C 6,6 C 68 % 0 % 1008 hPa 0,0 l/m 0,0 km/h (0 Bft)
20.04.2010 00:49 21,5 C 8,9 C 6,8 C 68 % 0 % 1008 hPa 0,0 l/m 0,0 km/h (0 Bft)
20.04.2010 00:52 21,5 C 8,8 C 6,7 C 68 % 0 % 1008 hPa 0,0 l/m 0,0 km/h (0 Bft)
20.04.2010 00:55 21,5 C 8,8 C 6,7 C 68 % 0 % 1008 hPa 0,0 l/m 0,0 km/h (0 Bft)
20.04.2010 00:58 21,5 C 8,7 C 6,9 C 68 % 0 % 1008 hPa 0,0 l/m 0,0 km/h (0 Bft)
20.04.2010 01:01 21,5 C 8,7 C 6,7 C 68 % 0 % 1008 hPa 0,0 l/m 0,0 km/h (0 Bft)
20.04.2010 01:04 21,5 C 8,7 C 6,9 C 69 % 0 % 1008 hPa 0,0 l/m 0,0 km/h (0 Bft)
20.04.2010 01:07 21,5 C 8,6 C 6,7 C 68 % 0 % 1008 hPa 0,0 l/m 0,0 km/h (0 Bft)
20.04.2010 01:10 21,5 C 8,6 C 6,7 C 68 % 0 % 1007 hPa 0,0 l/m 0,0 km/h (0 Bft)
20.04.2010 01:13 21,5 C 8,6 C 6,8 C 68 % 0 % 1007 hPa 0,0 l/m 0,0 km/h (0 Bft)
20.04.2010 01:16 21,4 C 8,5 C 6,6 C 70 % 0 % 1007 hPa 0,0 l/m 0,0 km/h (0 Bft)
20.04.2010 01:19 21,5 C 8,4 C 6,5 C 69 % 0 % 1008 hPa 0,0 l/m 0,7 km/h (0 Bft)
20.04.2010 01:22 21,5 C 8,4 C 6,7 C 73 % 0 % 1007 hPa 0,0 l/m 4,3 km/h (1 Bft)
20.04.2010 01:25 21,4 C 8,3 C 6,9 C 72 % 0 % 1007 hPa 0,0 l/m 1,5 km/h (1 Bft)
20.04.2010 01:28 21,4 C 8,2 C 6,8 C 72 % 0 % 1007 hPa 0,0 l/m 0,1 km/h (0 Bft)
20.04.2010 01:31 21,5 C 8,2 C 6,2 C 72 % 0 % 1007 hPa 0,0 l/m 2,4 km/h (1 Bft)
20.04.2010 01:34 21,5 C 8,1 C 6,5 C 72 % 0 % 1007 hPa 0,0 l/m 2,4 km/h (1 Bft)
20.04.2010 01:37 21,4 C 8,1 C 6,6 C 72 % 0 % 1008 hPa 0,0 l/m 0,0 km/h (0 Bft)
20.04.2010 01:40 21,4 C 8,0 C 6,6 C 72 % 0 % 1008 hPa 0,0 l/m 0,0 km/h (0 Bft)
20.04.2010 01:43 21,4 C 7,9 C 6,4 C 72 % 0 % 1008 hPa 0,0 l/m 0,0 km/h (0 Bft)
20.04.2010 01:46 21,4 C 7,9 C 6,2 C 73 % 0 % 1008 hPa 0,0 l/m 0,0 km/h (0 Bft)
20.04.2010 01:49 21,5 C 7,9 C 6,6 C 73 % 0 % 1008 hPa 0,0 l/m 0,0 km/h (0 Bft)
20.04.2010 01:52 21,4 C 7,9 C 6,7 C 74 % 0 % 1008 hPa 0,0 l/m 0,1 km/h (0 Bft)
20.04.2010 01:55 21,4 C 7,9 C 6,6 C 73 % 0 % 1008 hPa 0,0 l/m 0,3 km/h (0 Bft)
20.04.2010 01:58 21,4 C 7,9 C 6,6 C 74 % 0 % 1008 hPa 0,0 l/m 0,0 km/h (0 Bft)
20.04.2010 02:01 21,4 C 7,9 C 6,7 C 73 % 0 % 1008 hPa 0,0 l/m 0,3 km/h (0 Bft)
20.04.2010 02:04 21,4 C 7,9 C 6,8 C 73 % 0 % 1007 hPa 0,0 l/m 0,0 km/h (0 Bft)
20.04.2010 02:07 21,4 C 7,9 C 6,8 C 73 % 0 % 1007 hPa 0,0 l/m 0,0 km/h (0 Bft)
20.04.2010 02:10 21,4 C 7,8 C 6,6 C 74 % 0 % 1008 hPa 0,0 l/m 0,0 km/h (0 Bft)
20.04.2010 02:13 21,4 C 7,7 C 6,2 C 73 % 0 % 1008 hPa 0,0 l/m 0,1 km/h (0 Bft)
20.04.2010 02:16 21,4 C 7,6 C 6,4 C 73 % 0 % 1008 hPa 0,0 l/m 1,3 km/h (1 Bft)
20.04.2010 02:19 21,4 C 7,6 C 6,4 C 74 % 0 % 1007 hPa 0,0 l/m 0,9 km/h (0 Bft)
20.04.2010 02:22 21,4 C 7,6 C 6,4 C 74 % 0 % 1007 hPa 0,0 l/m 3,3 km/h (1 Bft)
20.04.2010 02:25 21,4 C 7,6 C 6,1 C 74 % 0 % 1007 hPa 0,0 l/m 4,3 km/h (1 Bft)
20.04.2010 02:28 21,4 C 7,6 C 5,6 C 74 % 0 % 1007 hPa 0,0 l/m 3,7 km/h (1 Bft)
20.04.2010 02:31 21,4 C 7,4 C 6,0 C 74 % 0 % 1007 hPa 0,0 l/m 1,8 km/h (1 Bft)
20.04.2010 02:34 21,4 C 7,3 C 5,6 C 74 % 0 % 1007 hPa 0,0 l/m 1,9 km/h (1 Bft)
20.04.2010 02:37 21,4 C 7,2 C 5,9 C 74 % 0 % 1007 hPa 0,0 l/m 2,4 km/h (1 Bft)
20.04.2010 02:40 21,4 C 7,2 C 6,0 C 74 % 0 % 1007 hPa 0,0 l/m 0,0 km/h (0 Bft)
20.04.2010 02:43 21,4 C 7,2 C 5,8 C 74 % 0 % 1007 hPa 0,0 l/m 0,3 km/h (0 Bft)
20.04.2010 02:46 21,4 C 6,8 C 5,7 C 75 % 0 % 1007 hPa 0,0 l/m 0,0 km/h (0 Bft)
20.04.2010 02:49 21,4 C 6,8 C 5,8 C 76 % 0 % 1007 hPa 0,0 l/m 0,0 km/h (0 Bft)
20.04.2010 02:52 21,4 C 6,8 C 5,7 C 76 % 0 % 1007 hPa 0,0 l/m 0,0 km/h (0 Bft)
20.04.2010 02:56 21,4 C 6,8 C 5,6 C 76 % 0 % 1007 hPa 0,0 l/m 0,0 km/h (0 Bft)
20.04.2010 02:59 21,4 C 6,8 C 5,5 C 76 % 0 % 1007 hPa 0,0 l/m 0,0 km/h (0 Bft)
20.04.2010 03:02 21,4 C 6,8 C 5,5 C 76 % 0 % 1007 hPa 0,0 l/m 0,0 km/h (0 Bft)
20.04.2010 03:05 21,4 C 6,8 C 5,5 C 76 % 0 % 1007 hPa 0,0 l/m 0,0 km/h (0 Bft)
20.04.2010 03:08 21,4 C 6,8 C 5,4 C 76 % 0 % 1007 hPa 0,0 l/m 0,0 km/h (0 Bft)
20.04.2010 03:11 21,4 C 6,8 C 5,4 C 76 % 0 % 1007 hPa 0,0 l/m 0,0 km/h (0 Bft)
20.04.2010 03:14 21,4 C 6,8 C 5,5 C 76 % 0 % 1007 hPa 0,0 l/m 0,0 km/h (0 Bft)
20.04.2010 03:17 21,4 C 6,8 C 5,5 C 76 % 0 % 1007 hPa 0,0 l/m 0,0 km/h (0 Bft)
20.04.2010 03:20 21,4 C 6,8 C 5,8 C 76 % 0 % 1007 hPa 0,0 l/m 0,0 km/h (0 Bft)
20.04.2010 03:23 21,4 C 6,8 C 5,8 C 76 % 0 % 1007 hPa 0,0 l/m 0,0 km/h (0 Bft)
20.04.2010 03:26 21,4 C 6,8 C 6,0 C 76 % 0 % 1007 hPa 0,0 l/m 0,0 km/h (0 Bft)
20.04.2010 03:29 21,4 C 6,8 C 6,2 C 76 % 0 % 1007 hPa 0,0 l/m 0,0 km/h (0 Bft)
20.04.2010 03:32 21,3 C 6,8 C 6,4 C 76 % 0 % 1007 hPa 0,0 l/m 0,0 km/h (0 Bft)
20.04.2010 03:35 21,3 C 6,8 C 6,5 C 76 % 0 % 1007 hPa 0,0 l/m 0,0 km/h (0 Bft)
20.04.2010 03:38 21,3 C 6,8 C 6,5 C 76 % 0 % 1007 hPa 0,0 l/m 0,0 km/h (0 Bft)
20.04.2010 03:41 21,3 C 6,8 C 6,8 C 76 % 0 % 1007 hPa 0,0 l/m 0,0 km/h (0 Bft)
20.04.2010 03:44 21,3 C 6,8 C 6,8 C 76 % 0 % 1007 hPa 0,0 l/m 0,0 km/h (0 Bft)
20.04.2010 03:47 21,3 C 6,8 C 6,4 C 76 % 0 % 1007 hPa 0,0 l/m 0,0 km/h (0 Bft)
20.04.2010 03:50 21,3 C 6,8 C 6,7 C 78 % 0 % 1007 hPa 0,0 l/m 0,0 km/h (0 Bft)
20.04.2010 03:53 21,3 C 6,8 C 6,7 C 78 % 0 % 1007 hPa 0,0 l/m 0,0 km/h (0 Bft)
20.04.2010 03:56 21,3 C 6,8 C 7,0 C 78 % 0 % 1007 hPa 0,0 l/m 0,0 km/h (0 Bft)
20.04.2010 03:59 21,3 C 6,8 C 7,1 C 79 % 0 % 1007 hPa 0,0 l/m 0,0 km/h (0 Bft)
20.04.2010 04:02 21,3 C 6,8 C 7,1 C 80 % 0 % 1008 hPa 0,0 l/m 1,0 km/h (0 Bft)
20.04.2010 04:05 21,3 C 6,7 C 6,4 C 79 % 0 % 1008 hPa 0,0 l/m 6,6 km/h (2 Bft)
20.04.2010 04:08 21,4 C 6,6 C 6,3 C 79 % 0 % 1008 hPa 0,0 l/m 0,4 km/h (0 Bft)
20.04.2010 04:11 21,4 C 6,5 C 6,3 C 79 % 0 % 1008 hPa 0,0 l/m 0,0 km/h (0 Bft)
20.04.2010 04:14 21,6 C 6,4 C 6,1 C 79 % 0 % 1008 hPa 0,0 l/m 0,0 km/h (0 Bft)
20.04.2010 04:17 21,8 C 6,4 C 6,0 C 79 % 0 % 1008 hPa 0,0 l/m 0,0 km/h (0 Bft)
20.04.2010 04:20 21,9 C 6,4 C 6,0 C 80 % 0 % 1008 hPa 0,0 l/m 0,3 km/h (0 Bft)
20.04.2010 04:23 22,0 C 6,3 C 5,8 C 81 % 0 % 1008 hPa 0,0 l/m 0,3 km/h (0 Bft)
20.04.2010 04:26 22,1 C 6,4 C 6,0 C 82 % 0 % 1008 hPa 0,0 l/m 0,0 km/h (0 Bft)
20.04.2010 04:29 22,2 C 6,4 C 5,9 C 81 % 0 % 1008 hPa 0,0 l/m 0,0 km/h (0 Bft)
20.04.2010 04:32 22,3 C 6,4 C 5,8 C 80 % 0 % 1008 hPa 0,0 l/m 0,0 km/h (0 Bft)
20.04.2010 04:35 22,4 C 6,4 C 5,4 C 81 % 0 % 1008 hPa 0,0 l/m 0,0 km/h (0 Bft)
20.04.2010 04:38 22,5 C 6,4 C 5,6 C 81 % 0 % 1007 hPa 0,0 l/m 0,1 km/h (0 Bft)
20.04.2010 04:41 22,5 C 6,4 C 5,4 C 81 % 0 % 1007 hPa 0,0 l/m 0,0 km/h (0 Bft)
20.04.2010 04:44 22,6 C 6,4 C 5,4 C 80 % 0 % 1007 hPa 0,0 l/m 0,0 km/h (0 Bft)
20.04.2010 04:47 22,6 C 6,3 C 5,4 C 80 % 0 % 1008 hPa 0,0 l/m 0,0 km/h (0 Bft)
20.04.2010 04:50 22,6 C 6,3 C 5,3 C 80 % 0 % 1008 hPa 0,0 l/m 0,0 km/h (0 Bft)
20.04.2010 04:53 22,7 C 6,2 C 5,3 C 80 % 0 % 1008 hPa 0,0 l/m 0,0 km/h (0 Bft)
20.04.2010 04:56 22,7 C 6,2 C 5,1 C 80 % 0 % 1008 hPa 0,0 l/m 0,0 km/h (0 Bft)
20.04.2010 04:59 22,8 C 6,1 C 5,1 C 80 % 0 % 1007 hPa 0,0 l/m 0,0 km/h (0 Bft)
20.04.2010 05:02 22,8 C 6,1 C 5,2 C 80 % 0 % 1007 hPa 0,0 l/m 0,0 km/h (0 Bft)
20.04.2010 05:05 22,9 C 6,0 C 5,2 C 80 % 0 % 1007 hPa 0,0 l/m 0,0 km/h (0 Bft)
20.04.2010 05:08 22,9 C 6,0 C 5,3 C 80 % 0 % 1007 hPa 0,0 l/m 0,0 km/h (0 Bft)
20.04.2010 05:11 23,0 C 6,0 C 5,5 C 81 % 0 % 1007 hPa 0,0 l/m 0,0 km/h (0 Bft)
20.04.2010 05:14 23,0 C 5,9 C 5,5 C 81 % 0 % 1007 hPa 0,0 l/m 0,0 km/h (0 Bft)
20.04.2010 05:17 23,0 C 5,9 C 5,2 C 80 % 0 % 1007 hPa 0,0 l/m 0,0 km/h (0 Bft)
20.04.2010 05:20 23,1 C 5,8 C 5,3 C 81 % 0 % 1007 hPa 0,0 l/m 0,0 km/h (0 Bft)
20.04.2010 05:23 23,1 C 5,8 C 5,1 C 81 % 0 % 1007 hPa 0,0 l/m 0,0 km/h (0 Bft)
20.04.2010 05:26 23,2 C 5,8 C 4,8 C 81 % 0 % 1007 hPa 0,0 l/m 0,0 km/h (0 Bft)
20.04.2010 05:29 23,2 C 5,7 C 4,8 C 81 % 0 % 1007 hPa 0,0 l/m 0,0 km/h (0 Bft)
20.04.2010 05:32 23,3 C 5,7 C 4,9 C 81 % 0 % 1007 hPa 0,0 l/m 0,0 km/h (0 Bft)
20.04.2010 05:35 23,4 C 5,7 C 4,9 C 81 % 0 % 1007 hPa 0,0 l/m 0,0 km/h (0 Bft)
20.04.2010 05:38 23,5 C 5,6 C 4,7 C 81 % 0 % 1007 hPa 0,0 l/m 0,0 km/h (0 Bft)
20.04.2010 05:41 23,5 C 5,6 C 4,7 C 81 % 0 % 1007 hPa 0,0 l/m 0,0 km/h (0 Bft)
20.04.2010 05:44 23,5 C 5,5 C 4,7 C 82 % 0 % 1007 hPa 0,0 l/m 0,0 km/h (0 Bft)
20.04.2010 05:47 23,5 C 5,5 C 4,8 C 82 % 0 % 1007 hPa 0,0 l/m 0,0 km/h (0 Bft)
20.04.2010 05:50 23,5 C 5,6 C 4,9 C 82 % 0 % 1007 hPa 0,0 l/m 0,0 km/h (0 Bft)
20.04.2010 05:53 23,5 C 5,6 C 4,9 C 82 % 0 % 1007 hPa 0,0 l/m 0,0 km/h (0 Bft)
20.04.2010 05:56 23,5 C 5,6 C 4,8 C 82 % 0 % 1007 hPa 0,0 l/m 0,0 km/h (0 Bft)
20.04.2010 05:59 23,5 C 5,8 C 4,7 C 83 % 0 % 1007 hPa 0,0 l/m 0,0 km/h (0 Bft)
20.04.2010 06:02 23,5 C 5,8 C 4,7 C 83 % 0 % 1007 hPa 0,0 l/m 0,0 km/h (0 Bft)
20.04.2010 06:05 23,5 C 5,8 C 4,7 C 82 % 0 % 1007 hPa 0,0 l/m 0,0 km/h (0 Bft)
20.04.2010 06:08 23,5 C 5,8 C 4,8 C 82 % 0 % 1007 hPa 0,0 l/m 0,0 km/h (0 Bft)
20.04.2010 06:11 23,5 C 5,8 C 4,9 C 82 % 0 % 1007 hPa 0,0 l/m 0,0 km/h (0 Bft)
20.04.2010 06:14 23,6 C 5,9 C 4,7 C 82 % 0 % 1007 hPa 0,0 l/m 0,0 km/h (0 Bft)
20.04.2010 06:17 23,6 C 5,9 C 4,4 C 81 % 0 % 1007 hPa 0,0 l/m 0,0 km/h (0 Bft)
20.04.2010 06:20 23,5 C 5,7 C 4,4 C 82 % 0 % 1007 hPa 0,0 l/m 0,0 km/h (0 Bft)
20.04.2010 06:23 23,4 C 5,6 C 4,6 C 82 % 0 % 1007 hPa 0,0 l/m 0,0 km/h (0 Bft)
20.04.2010 06:26 23,4 C 5,6 C 4,7 C 82 % 0 % 1008 hPa 0,0 l/m 0,0 km/h (0 Bft)
20.04.2010 06:29 23,4 C 5,5 C 5,2 C 82 % 0 % 1008 hPa 0,0 l/m 0,0 km/h (0 Bft)
20.04.2010 06:32 23,4 C 5,5 C 5,1 C 82 % 0 % 1008 hPa 0,0 l/m 0,0 km/h (0 Bft)
20.04.2010 06:35 23,4 C 5,5 C 5,0 C 82 % 0 % 1008 hPa 0,0 l/m 0,0 km/h (0 Bft)
20.04.2010 06:38 23,4 C 5,5 C 4,6 C 82 % 0 % 1007 hPa 0,0 l/m 0,0 km/h (0 Bft)
20.04.2010 06:41 23,4 C 5,4 C 4,6 C 83 % 0 % 1007 hPa 0,0 l/m 0,0 km/h (0 Bft)
20.04.2010 06:44 22,9 C 5,5 C 4,8 C 83 % 0 % 1008 hPa 0,0 l/m 2,9 km/h (1 Bft)
20.04.2010 06:47 22,9 C 5,5 C 5,6 C 83 % 0 % 1008 hPa 0,0 l/m 0,3 km/h (0 Bft)
20.04.2010 06:50 22,5 C 5,4 C 5,8 C 83 % 0 % 1008 hPa 0,0 l/m 0,0 km/h (0 Bft)
20.04.2010 06:53 22,5 C 5,4 C 5,8 C 83 % 0 % 1008 hPa 0,0 l/m 0,0 km/h (0 Bft)
20.04.2010 06:56 22,6 C 5,4 C 5,2 C 84 % 0 % 1008 hPa 0,0 l/m 2,5 km/h (1 Bft)
20.04.2010 06:59 22,6 C 5,4 C 6,0 C 84 % 0 % 1008 hPa 0,0 l/m 3,1 km/h (1 Bft)
20.04.2010 07:02 22,6 C 5,6 C 6,3 C 85 % 0 % 1008 hPa 0,0 l/m 2,4 km/h (1 Bft)
20.04.2010 07:05 22,7 C 5,6 C 6,0 C 84 % 0 % 1008 hPa 0,0 l/m 0,0 km/h (0 Bft)
20.04.2010 07:08 22,6 C 5,7 C 5,7 C 84 % 0 % 1008 hPa 0,0 l/m 0,9 km/h (0 Bft)
20.04.2010 07:11 22,6 C 5,9 C 6,2 C 84 % 0 % 1008 hPa 0,0 l/m 2,5 km/h (1 Bft)
20.04.2010 07:14 22,6 C 6,0 C 7,3 C 84 % 0 % 1008 hPa 0,0 l/m 0,2 km/h (0 Bft)
20.04.2010 07:17 22,6 C 6,0 C 7,1 C 84 % 0 % 1008 hPa 0,0 l/m 3,1 km/h (1 Bft)
20.04.2010 07:20 22,5 C 6,0 C 6,8 C 84 % 0 % 1008 hPa 0,0 l/m 1,3 km/h (1 Bft)
20.04.2010 07:23 22,5 C 6,1 C 7,3 C 84 % 0 % 1008 hPa 0,0 l/m 1,3 km/h (1 Bft)
20.04.2010 07:26 22,5 C 6,1 C 6,6 C 84 % 0 % 1008 hPa 0,0 l/m 2,7 km/h (1 Bft)
20.04.2010 07:29 22,4 C 6,4 C 6,9 C 84 % 0 % 1008 hPa 0,0 l/m 1,5 km/h (1 Bft)
20.04.2010 07:32 22,4 C 6,4 C 7,3 C 84 % 0 % 1008 hPa 0,0 l/m 0,0 km/h (0 Bft)
20.04.2010 07:35 22,4 C 6,5 C 6,7 C 84 % 0 % 1008 hPa 0,0 l/m 2,7 km/h (1 Bft)
20.04.2010 07:38 22,4 C 6,5 C 6,5 C 84 % 0 % 1008 hPa 0,0 l/m 3,1 km/h (1 Bft)
20.04.2010 07:41 22,4 C 6,6 C 7,1 C 83 % 0 % 1008 hPa 0,0 l/m 2,1 km/h (1 Bft)
20.04.2010 07:44 22,3 C 6,6 C 7,8 C 83 % 0 % 1008 hPa 0,0 l/m 0,6 km/h (0 Bft)
20.04.2010 07:47 22,3 C 6,6 C 8,2 C 83 % 0 % 1008 hPa 0,0 l/m 0,0 km/h (0 Bft)
20.04.2010 07:50 22,3 C 6,6 C 8,9 C 83 % 0 % 1008 hPa 0,0 l/m 0,0 km/h (0 Bft)
20.04.2010 07:53 22,2 C 6,6 C 9,4 C 84 % 0 % 1008 hPa 0,0 l/m 0,0 km/h (0 Bft)
20.04.2010 07:56 22,2 C 6,6 C 10,1 C 84 % 0 % 1008 hPa 0,0 l/m 0,0 km/h (0 Bft)
20.04.2010 07:59 22,2 C 6,6 C 10,4 C 84 % 0 % 1008 hPa 0,0 l/m 0,0 km/h (0 Bft)
20.04.2010 08:02 22,2 C 7,0 C 10,2 C 84 % 0 % 1008 hPa 0,0 l/m 0,0 km/h (0 Bft)
20.04.2010 08:05 22,1 C 7,2 C 11,9 C 84 % 0 % 1008 hPa 0,0 l/m 0,4 km/h (0 Bft)
20.04.2010 08:08 22,1 C 7,2 C 14,8 C 84 % 0 % 1008 hPa 0,0 l/m 0,4 km/h (0 Bft)
20.04.2010 08:11 22,1 C 7,6 C 12,8 C 83 % 0 % 1008 hPa 0,0 l/m 0,0 km/h (0 Bft)
20.04.2010 08:14 22,1 C 7,9 C 13,1 C 83 % 0 % 1008 hPa 0,0 l/m 0,1 km/h (0 Bft)
20.04.2010 08:17 22,1 C 7,9 C 11,3 C 83 % 0 % 1008 hPa 0,0 l/m 0,0 km/h (0 Bft)
20.04.2010 08:20 22,1 C 8,2 C 15,0 C 82 % 0 % 1008 hPa 0,0 l/m 0,0 km/h (0 Bft)
20.04.2010 08:23 22,1 C 8,4 C 13,4 C 82 % 0 % 1008 hPa 0,0 l/m 0,0 km/h (0 Bft)
20.04.2010 08:26 22,1 C 8,6 C 19,4 C 82 % 0 % 1008 hPa 0,0 l/m 0,0 km/h (0 Bft)
20.04.2010 08:29 22,0 C 8,8 C 19,3 C 82 % 0 % 1008 hPa 0,0 l/m 0,0 km/h (0 Bft)
20.04.2010 08:32 22,0 C 8,8 C 15,3 C 81 % 0 % 1008 hPa 0,0 l/m 0,0 km/h (0 Bft)
20.04.2010 08:35 22,0 C 8,8 C 13,9 C 81 % 0 % 1008 hPa 0,0 l/m 0,0 km/h (0 Bft)
20.04.2010 08:38 22,0 C 8,8 C 13,2 C 81 % 0 % 1008 hPa 0,0 l/m 0,1 km/h (0 Bft)
20.04.2010 08:41 22,0 C 9,0 C 17,1 C 80 % 0 % 1008 hPa 0,0 l/m 0,3 km/h (0 Bft)
20.04.2010 08:44 22,0 C 9,1 C 15,8 C 80 % 0 % 1008 hPa 0,0 l/m 0,2 km/h (0 Bft)
20.04.2010 08:47 22,0 C 9,1 C 19,0 C 80 % 0 % 1008 hPa 0,0 l/m 0,0 km/h (0 Bft)
20.04.2010 08:50 22,0 C 9,3 C 19,0 C 79 % 0 % 1008 hPa 0,0 l/m 0,0 km/h (0 Bft)
20.04.2010 08:53 22,0 C 9,4 C 19,0 C 79 % 0 % 1008 hPa 0,0 l/m 0,3 km/h (0 Bft)
20.04.2010 08:56 22,0 C 9,6 C 23,8 C 79 % 0 % 1008 hPa 0,0 l/m 0,3 km/h (0 Bft)
20.04.2010 08:59 22,0 C 10,0 C 22,8 C 79 % 0 % 1008 hPa 0,0 l/m 0,3 km/h (0 Bft)
20.04.2010 09:02 21,9 C 10,2 C 19,7 C 78 % 0 % 1008 hPa 0,0 l/m 6,5 km/h (2 Bft)
20.04.2010 09:05 21,9 C 10,5 C 21,0 C 78 % 0 % 1008 hPa 0,0 l/m 6,0 km/h (2 Bft)
20.04.2010 09:08 22,0 C 10,8 C 24,2 C 78 % 0 % 1008 hPa 0,0 l/m 2,3 km/h (1 Bft)
20.04.2010 09:11 22,0 C 11,0 C 24,2 C 77 % 0 % 1008 hPa 0,0 l/m 0,0 km/h (0 Bft)
20.04.2010 09:14 21,9 C 11,2 C 24,2 C 73 % 0 % 1008 hPa 0,0 l/m 4,0 km/h (1 Bft)
20.04.2010 09:17 21,9 C 11,2 C 33,7 C 73 % 0 % 1008 hPa 0,0 l/m 0,4 km/h (0 Bft)
20.04.2010 09:20 21,9 C 11,4 C 34,8 C 72 % 0 % 1008 hPa 0,0 l/m 0,0 km/h (0 Bft)
20.04.2010 09:23 21,9 C 11,6 C 31,7 C 71 % 0 % 1008 hPa 0,0 l/m 0,0 km/h (0 Bft)
20.04.2010 09:26 21,9 C 11,8 C 31,8 C 71 % 0 % 1008 hPa 0,0 l/m 0,3 km/h (0 Bft)
20.04.2010 09:29 21,9 C 12,0 C 31,8 C 71 % 0 % 1008 hPa 0,0 l/m 2,2 km/h (1 Bft)
20.04.2010 09:32 21,8 C 12,0 C 27,0 C 70 % 0 % 1008 hPa 0,0 l/m 0,1 km/h (0 Bft)
20.04.2010 09:35 21,9 C 12,0 C 26,5 C 70 % 0 % 1008 hPa 0,0 l/m 0,0 km/h (0 Bft)
20.04.2010 09:38 21,8 C 12,3 C 23,7 C 69 % 0 % 1008 hPa 0,0 l/m 0,0 km/h (0 Bft)
20.04.2010 09:41 21,8 C 12,3 C 25,9 C 69 % 0 % 1008 hPa 0,0 l/m 0,2 km/h (0 Bft)
20.04.2010 09:44 21,8 C 12,1 C 23,2 C 68 % 0 % 1008 hPa 0,0 l/m 0,6 km/h (0 Bft)
20.04.2010 09:47 21,8 C 12,1 C 23,2 C 67 % 0 % 1008 hPa 0,0 l/m 1,5 km/h (1 Bft)
20.04.2010 09:50 21,8 C 12,3 C 32,9 C 68 % 0 % 1008 hPa 0,0 l/m 2,5 km/h (1 Bft)
20.04.2010 09:53 21,8 C 12,4 C 32,9 C 68 % 0 % 1008 hPa 0,0 l/m 0,0 km/h (0 Bft)
20.04.2010 09:56 21,8 C 12,6 C 32,1 C 68 % 0 % 1008 hPa 0,0 l/m 0,0 km/h (0 Bft)
20.04.2010 09:59 21,8 C 12,9 C 34,9 C 68 % 0 % 1008 hPa 0,0 l/m 0,0 km/h (0 Bft)
20.04.2010 10:02 21,8 C 13,2 C 35,4 C 66 % 0 % 1009 hPa 0,0 l/m 0,0 km/h (0 Bft)
20.04.2010 10:05 21,8 C 13,3 C 34,6 C 65 % 0 % 1009 hPa 0,0 l/m 0,6 km/h (0 Bft)
20.04.2010 10:08 21,8 C 13,5 C 36,1 C 66 % 0 % 1009 hPa 0,0 l/m 0,4 km/h (0 Bft)
20.04.2010 10:11 21,8 C 13,7 C 38,6 C 66 % 0 % 1009 hPa 0,0 l/m 0,2 km/h (0 Bft)
20.04.2010 10:14 21,8 C 14,0 C 38,4 C 64 % 0 % 1009 hPa 0,0 l/m 0,3 km/h (0 Bft)
20.04.2010 10:17 21,8 C 14,0 C 33,4 C 64 % 0 % 1009 hPa 0,0 l/m 0,3 km/h (0 Bft)
20.04.2010 10:20 21,8 C 14,1 C 31,6 C 63 % 0 % 1009 hPa 0,0 l/m 4,2 km/h (1 Bft)
20.04.2010 10:23 21,8 C 14,3 C 36,4 C 65 % 0 % 1008 hPa 0,0 l/m 6,6 km/h (2 Bft)
20.04.2010 10:26 21,8 C 14,6 C 38,8 C 62 % 0 % 1009 hPa 0,0 l/m 0,4 km/h (0 Bft)
20.04.2010 10:29 21,8 C 14,7 C 39,3 C 62 % 0 % 1009 hPa 0,0 l/m 3,3 km/h (1 Bft)
20.04.2010 10:32 21,8 C 14,8 C 33,9 C 61 % 0 % 1009 hPa 0,0 l/m 3,3 km/h (1 Bft)
20.04.2010 10:35 21,8 C 15,0 C 35,2 C 62 % 0 % 1009 hPa 0,0 l/m 6,5 km/h (2 Bft)
20.04.2010 10:38 21,8 C 15,2 C 35,2 C 61 % 0 % 1009 hPa 0,0 l/m 4,4 km/h (1 Bft)
20.04.2010 10:41 21,8 C 15,3 C 36,0 C 61 % 0 % 1009 hPa 0,0 l/m 6,6 km/h (2 Bft)
20.04.2010 10:44 21,8 C 15,5 C 36,0 C 55 % 0 % 1009 hPa 0,0 l/m 9,0 km/h (2 Bft)
20.04.2010 10:47 21,8 C 15,4 C 37,2 C 60 % 0 % 1009 hPa 0,0 l/m 8,2 km/h (2 Bft)
20.04.2010 10:50 21,8 C 15,6 C 36,4 C 59 % 0 % 1009 hPa 0,0 l/m 9,9 km/h (2 Bft)
20.04.2010 10:53 21,7 C 15,6 C 32,4 C 57 % 0 % 1009 hPa 0,0 l/m 6,4 km/h (2 Bft)
20.04.2010 10:56 21,8 C 15,6 C 33,0 C 58 % 0 % 1009 hPa 0,0 l/m 7,2 km/h (2 Bft)
20.04.2010 10:59 21,7 C 15,6 C 31,3 C 58 % 0 % 1009 hPa 0,0 l/m 11,4 km/h (2 Bft)
20.04.2010 11:02 21,8 C 15,6 C 29,2 C 58 % 0 % 1009 hPa 0,0 l/m 9,0 km/h (2 Bft)
20.04.2010 11:05 21,7 C 16,0 C 30,0 C 59 % 0 % 1009 hPa 0,0 l/m 0,3 km/h (0 Bft)
20.04.2010 11:08 21,8 C 16,1 C 28,8 C 59 % 0 % 1009 hPa 0,0 l/m 3,0 km/h (1 Bft)
20.04.2010 11:11 21,7 C 16,2 C 24,4 C 58 % 0 % 1009 hPa 0,0 l/m 9,8 km/h (2 Bft)
20.04.2010 11:14 21,7 C 16,1 C 24,2 C 57 % 0 % 1009 hPa 0,0 l/m 6,0 km/h (2 Bft)
20.04.2010 11:17 21,7 C 16,1 C 22,3 C 57 % 0 % 1009 hPa 0,0 l/m 5,2 km/h (1 Bft)
20.04.2010 11:20 21,7 C 15,6 C 20,5 C 57 % 0 % 1009 hPa 0,0 l/m 5,2 km/h (1 Bft)
20.04.2010 11:23 21,8 C 15,6 C 20,5 C 57 % 0 % 1009 hPa 0,0 l/m 4,8 km/h (1 Bft)
20.04.2010 11:26 21,7 C 15,6 C 21,6 C 56 % 0 % 1009 hPa 0,0 l/m 0,4 km/h (0 Bft)
20.04.2010 11:29 21,7 C 15,6 C 25,5 C 57 % 0 % 1009 hPa 0,0 l/m 0,0 km/h (0 Bft)
20.04.2010 11:32 21,7 C 15,8 C 28,1 C 58 % 0 % 1009 hPa 0,0 l/m 2,4 km/h (1 Bft)
20.04.2010 11:35 21,7 C 16,1 C 28,1 C 57 % 0 % 1009 hPa 0,0 l/m 4,0 km/h (1 Bft)
20.04.2010 11:38 21,7 C 16,2 C 33,2 C 53 % 0 % 1008 hPa 0,0 l/m 9,5 km/h (2 Bft)
20.04.2010 11:41 21,7 C 16,2 C 34,1 C 53 % 0 % 1008 hPa 0,0 l/m 9,5 km/h (2 Bft)
20.04.2010 11:44 21,7 C 16,4 C 35,2 C 52 % 0 % 1008 hPa 0,0 l/m 17,3 km/h (3 Bft)
20.04.2010 11:47 21,7 C 16,5 C 34,2 C 49 % 0 % 1008 hPa 0,0 l/m 17,5 km/h (3 Bft)
20.04.2010 11:50 21,7 C 16,5 C 32,4 C 49 % 0 % 1008 hPa 0,0 l/m 15,8 km/h (3 Bft)
20.04.2010 11:53 21,7 C 16,9 C 28,5 C 48 % 0 % 1008 hPa 0,0 l/m 21,5 km/h (4 Bft)
20.04.2010 11:56 21,7 C 17,2 C 28,1 C 44 % 0 % 1008 hPa 0,0 l/m 22,6 km/h (4 Bft)
20.04.2010 11:59 21,7 C 17,4 C 28,6 C 48 % 0 % 1008 hPa 0,0 l/m 23,6 km/h (4 Bft)
20.04.2010 12:02 21,7 C 17,4 C 32,4 C 44 % 0 % 1008 hPa 0,0 l/m 23,6 km/h (4 Bft)
20.04.2010 12:05 21,6 C 17,3 C 32,4 C 44 % 0 % 1008 hPa 0,0 l/m 11,4 km/h (2 Bft)
20.04.2010 12:08 21,7 C 17,4 C 33,6 C 46 % 0 % 1008 hPa 0,0 l/m 18,8 km/h (3 Bft)
20.04.2010 12:11 21,7 C 17,6 C 33,2 C 47 % 0 % 1008 hPa 0,0 l/m 19,5 km/h (3 Bft)
20.04.2010 12:14 21,7 C 17,7 C 29,2 C 44 % 0 % 1008 hPa 0,0 l/m 19,5 km/h (3 Bft)
20.04.2010 12:17 21,7 C 17,7 C 28,0 C 43 % 0 % 1008 hPa 0,0 l/m 36,4 km/h (5 Bft)
20.04.2010 12:20 21,7 C 18,0 C 26,6 C 41 % 0 % 1008 hPa 0,0 l/m 28,7 km/h (4 Bft)
20.04.2010 12:23 21,7 C 18,2 C 28,2 C 38 % 0 % 1008 hPa 0,0 l/m 24,4 km/h (4 Bft)
20.04.2010 12:26 21,6 C 18,3 C 25,4 C 39 % 0 % 1008 hPa 0,0 l/m 30,1 km/h (5 Bft)
20.04.2010 12:29 21,6 C 18,3 C 23,1 C 36 % 0 % 1008 hPa 0,0 l/m 32,1 km/h (5 Bft)
20.04.2010 12:32 21,6 C 18,4 C 25,5 C 37 % 0 % 1008 hPa 0,0 l/m 34,0 km/h (5 Bft)
20.04.2010 12:35 21,6 C 18,4 C 25,5 C 37 % 0 % 1008 hPa 0,0 l/m 21,8 km/h (4 Bft)
20.04.2010 12:38 21,6 C 18,0 C 26,7 C 44 % 0 % 1008 hPa 0,0 l/m 22,3 km/h (4 Bft)
20.04.2010 12:41 21,6 C 18,0 C 25,9 C 44 % 0 % 1008 hPa 0,0 l/m 19,0 km/h (3 Bft)
20.04.2010 12:44 21,6 C 18,0 C 22,7 C 44 % 0 % 1008 hPa 0,0 l/m 21,1 km/h (4 Bft)
20.04.2010 12:47 21,6 C 18,0 C 23,4 C 44 % 0 % 1008 hPa 0,0 l/m 17,8 km/h (3 Bft)
20.04.2010 12:50 21,6 C 17,6 C 20,6 C 41 % 0 % 1008 hPa 0,0 l/m 32,8 km/h (5 Bft)
20.04.2010 12:53 21,6 C 17,5 C 19,3 C 39 % 0 % 1008 hPa 0,0 l/m 32,8 km/h (5 Bft)
20.04.2010 12:56 21,6 C 17,5 C 19,6 C 40 % 0 % 1008 hPa 0,0 l/m 40,4 km/h (6 Bft)
20.04.2010 12:59 21,6 C 17,4 C 18,3 C 39 % 0 % 1008 hPa 0,0 l/m 37,0 km/h (5 Bft)
20.04.2010 13:02 21,6 C 17,5 C 18,5 C 41 % 0 % 1008 hPa 0,0 l/m 29,9 km/h (5 Bft)
20.04.2010 13:05 21,6 C 17,5 C 19,3 C 39 % 0 % 1008 hPa 0,0 l/m 38,3 km/h (5 Bft)
20.04.2010 13:08 21,6 C 17,6 C 18,6 C 39 % 0 % 1008 hPa 0,0 l/m 36,7 km/h (5 Bft)
20.04.2010 13:11 21,6 C 18,0 C 20,2 C 39 % 0 % 1008 hPa 0,0 l/m 34,6 km/h (5 Bft)
20.04.2010 13:14 21,6 C 17,9 C 20,2 C 38 % 0 % 1008 hPa 0,0 l/m 35,4 km/h (5 Bft)
20.04.2010 13:17 21,6 C 17,6 C 18,9 C 39 % 0 % 1008 hPa 0,0 l/m 34,7 km/h (5 Bft)
20.04.2010 13:20 21,6 C 17,5 C 18,6 C 39 % 0 % 1008 hPa 0,0 l/m 39,4 km/h (6 Bft)
20.04.2010 13:23 21,6 C 17,5 C 18,7 C 40 % 0 % 1008 hPa 0,0 l/m 39,4 km/h (6 Bft)
20.04.2010 13:26 21,6 C 17,5 C 18,6 C 40 % 0 % 1008 hPa 0,0 l/m 29,2 km/h (5 Bft)
20.04.2010 13:29 21,6 C 17,5 C 17,8 C 40 % 0 % 1008 hPa 0,0 l/m 32,0 km/h (5 Bft)
20.04.2010 13:32 21,6 C 17,4 C 17,4 C 39 % 0 % 1008 hPa 0,0 l/m 30,2 km/h (5 Bft)
20.04.2010 13:35 21,6 C 17,4 C 17,4 C 41 % 0 % 1008 hPa 0,0 l/m 30,6 km/h (5 Bft)
20.04.2010 13:38 21,6 C 17,4 C 17,8 C 41 % 0 % 1008 hPa 0,0 l/m 23,3 km/h (4 Bft)
20.04.2010 13:41 21,5 C 17,6 C 18,4 C 43 % 0 % 1008 hPa 0,0 l/m 25,1 km/h (4 Bft)
20.04.2010 13:44 21,6 C 17,7 C 19,5 C 40 % 0 % 1008 hPa 0,0 l/m 35,3 km/h (5 Bft)
20.04.2010 13:47 21,6 C 17,9 C 21,2 C 40 % 0 % 1008 hPa 0,0 l/m 33,4 km/h (5 Bft)
20.04.2010 13:50 21,6 C 18,1 C 22,9 C 40 % 0 % 1008 hPa 0,0 l/m 27,0 km/h (4 Bft)
20.04.2010 13:53 21,6 C 18,2 C 23,4 C 41 % 0 % 1008 hPa 0,0 l/m 28,7 km/h (4 Bft)
20.04.2010 13:56 21,6 C 18,4 C 24,6 C 41 % 0 % 1008 hPa 0,0 l/m 30,6 km/h (5 Bft)
20.04.2010 13:59 21,6 C 18,5 C 25,2 C 39 % 0 % 1008 hPa 0,0 l/m 27,0 km/h (4 Bft)
20.04.2010 14:02 21,6 C 18,7 C 24,8 C 39 % 0 % 1008 hPa 0,0 l/m 20,9 km/h (4 Bft)
20.04.2010 14:05 21,6 C 18,9 C 24,8 C 37 % 0 % 1007 hPa 0,0 l/m 33,1 km/h (5 Bft)
20.04.2010 14:08 21,6 C 18,8 C 24,3 C 37 % 0 % 1007 hPa 0,0 l/m 29,5 km/h (5 Bft)
20.04.2010 14:11 21,6 C 18,9 C 24,6 C 39 % 0 % 1007 hPa 0,0 l/m 27,1 km/h (4 Bft)
20.04.2010 14:14 21,6 C 19,0 C 22,7 C 38 % 0 % 1007 hPa 0,0 l/m 29,0 km/h (5 Bft)
20.04.2010 14:17 21,6 C 18,8 C 23,9 C 39 % 0 % 1007 hPa 0,0 l/m 27,1 km/h (4 Bft)
20.04.2010 14:20 21,6 C 18,8 C 24,7 C 39 % 0 % 1007 hPa 0,0 l/m 38,4 km/h (5 Bft)
20.04.2010 14:23 21,6 C 18,8 C 24,9 C 39 % 0 % 1007 hPa 0,0 l/m 30,4 km/h (5 Bft)
20.04.2010 14:26 21,6 C 18,6 C 25,2 C 39 % 0 % 1007 hPa 0,0 l/m 31,2 km/h (5 Bft)
20.04.2010 14:29 21,6 C 18,6 C 25,1 C 39 % 0 % 1007 hPa 0,0 l/m 31,2 km/h (5 Bft)
20.04.2010 14:32 21,6 C 18,9 C 25,1 C 37 % 0 % 1007 hPa 0,0 l/m 31,2 km/h (5 Bft)
20.04.2010 14:35 21,6 C 19,0 C 24,9 C 37 % 0 % 1007 hPa 0,0 l/m 34,3 km/h (5 Bft)
20.04.2010 14:38 21,6 C 19,1 C 23,8 C 36 % 0 % 1007 hPa 0,0 l/m 26,1 km/h (4 Bft)
20.04.2010 14:41 21,6 C 18,9 C 24,6 C 38 % 0 % 1007 hPa 0,0 l/m 31,8 km/h (5 Bft)
20.04.2010 14:44 21,6 C 19,0 C 21,8 C 36 % 0 % 1007 hPa 0,0 l/m 28,6 km/h (4 Bft)
20.04.2010 14:47 21,6 C 18,7 C 20,4 C 38 % 0 % 1007 hPa 0,0 l/m 27,6 km/h (4 Bft)
20.04.2010 14:50 21,6 C 18,6 C 20,4 C 38 % 0 % 1007 hPa 0,0 l/m 24,0 km/h (4 Bft)
20.04.2010 14:53 21,6 C 18,5 C 23,2 C 39 % 0 % 1007 hPa 0,0 l/m 24,0 km/h (4 Bft)
20.04.2010 14:56 21,6 C 18,8 C 24,4 C 39 % 0 % 1007 hPa 0,0 l/m 24,0 km/h (4 Bft)
20.04.2010 14:59 21,6 C 18,8 C 25,1 C 39 % 0 % 1007 hPa 0,0 l/m 30,3 km/h (5 Bft)
20.04.2010 15:02 21,6 C 18,8 C 25,8 C 38 % 0 % 1007 hPa 0,0 l/m 29,7 km/h (5 Bft)
20.04.2010 15:05 21,7 C 18,9 C 25,8 C 38 % 0 % 1007 hPa 0,0 l/m 30,6 km/h (5 Bft)
20.04.2010 15:08 21,6 C 18,7 C 21,0 C 38 % 0 % 1007 hPa 0,0 l/m 30,2 km/h (5 Bft)
20.04.2010 15:11 21,6 C 18,6 C 23,7 C 38 % 0 % 1007 hPa 0,0 l/m 33,9 km/h (5 Bft)
20.04.2010 15:14 21,6 C 18,6 C 23,1 C 38 % 0 % 1007 hPa 0,0 l/m 33,9 km/h (5 Bft)
20.04.2010 15:17 21,6 C 18,6 C 24,9 C 39 % 0 % 1007 hPa 0,0 l/m 26,5 km/h (4 Bft)
20.04.2010 15:20 21,6 C 19,0 C 26,4 C 39 % 0 % 1007 hPa 0,0 l/m 28,5 km/h (4 Bft)
20.04.2010 15:23 21,6 C 19,0 C 26,1 C 37 % 0 % 1007 hPa 0,0 l/m 33,0 km/h (5 Bft)
20.04.2010 15:26 21,6 C 18,8 C 23,0 C 36 % 0 % 1007 hPa 0,0 l/m 32,9 km/h (5 Bft)
20.04.2010 15:29 21,6 C 18,6 C 20,4 C 37 % 0 % 1007 hPa 0,0 l/m 33,7 km/h (5 Bft)
20.04.2010 15:32 21,6 C 18,4 C 19,6 C 38 % 0 % 1007 hPa 0,0 l/m 35,0 km/h (5 Bft)
20.04.2010 15:35 21,6 C 18,1 C 20,6 C 39 % 0 % 1007 hPa 0,0 l/m 32,9 km/h (5 Bft)
20.04.2010 15:38 21,6 C 18,4 C 23,0 C 38 % 0 % 1007 hPa 0,0 l/m 38,0 km/h (5 Bft)
20.04.2010 15:41 21,6 C 18,9 C 23,9 C 34 % 0 % 1007 hPa 0,0 l/m 28,3 km/h (4 Bft)
20.04.2010 15:44 21,6 C 18,9 C 23,9 C 33 % 0 % 1007 hPa 0,0 l/m 38,9 km/h (6 Bft)
20.04.2010 15:47 21,6 C 18,8 C 23,1 C 31 % 0 % 1007 hPa 0,0 l/m 45,8 km/h (6 Bft)
20.04.2010 15:50 21,6 C 18,6 C 23,2 C 32 % 0 % 1007 hPa 0,0 l/m 37,9 km/h (5 Bft)
20.04.2010 15:53 21,6 C 18,6 C 23,1 C 33 % 0 % 1007 hPa 0,0 l/m 37,1 km/h (5 Bft)
20.04.2010 15:56 21,6 C 18,8 C 23,5 C 32 % 0 % 1007 hPa 0,0 l/m 40,6 km/h (6 Bft)
20.04.2010 15:59 21,6 C 18,8 C 23,0 C 32 % 0 % 1007 hPa 0,0 l/m 36,3 km/h (5 Bft)
20.04.2010 16:02 21,5 C 18,8 C 23,4 C 32 % 0 % 1007 hPa 0,0 l/m 33,7 km/h (5 Bft)
20.04.2010 16:05 21,6 C 18,8 C 24,0 C 32 % 0 % 1007 hPa 0,0 l/m 33,7 km/h (5 Bft)
20.04.2010 16:08 21,6 C 18,8 C 24,0 C 31 % 0 % 1007 hPa 0,0 l/m 39,6 km/h (6 Bft)
20.04.2010 16:11 21,6 C 19,0 C 22,8 C 33 % 0 % 1007 hPa 0,0 l/m 43,2 km/h (6 Bft)
20.04.2010 16:14 21,6 C 18,9 C 22,7 C 29 % 0 % 1007 hPa 0,0 l/m 43,2 km/h (6 Bft)
20.04.2010 16:17 21,6 C 18,9 C 21,1 C 30 % 0 % 1007 hPa 0,0 l/m 36,0 km/h (5 Bft)
20.04.2010 16:20 21,5 C 18,8 C 22,0 C 31 % 0 % 1007 hPa 0,0 l/m 38,9 km/h (6 Bft)
20.04.2010 16:23 21,6 C 19,0 C 22,3 C 31 % 0 % 1007 hPa 0,0 l/m 33,2 km/h (5 Bft)
20.04.2010 16:26 21,6 C 18,9 C 21,3 C 31 % 0 % 1007 hPa 0,0 l/m 40,0 km/h (6 Bft)
20.04.2010 16:29 21,6 C 18,8 C 20,9 C 31 % 0 % 1007 hPa 0,0 l/m 36,7 km/h (5 Bft)
20.04.2010 16:32 21,6 C 18,9 C 21,6 C 29 % 0 % 1006 hPa 0,0 l/m 35,8 km/h (5 Bft)
20.04.2010 16:35 21,5 C 19,0 C 21,4 C 32 % 0 % 1007 hPa 0,0 l/m 28,5 km/h (4 Bft)
20.04.2010 16:38 21,5 C 19,0 C 21,4 C 32 % 0 % 1007 hPa 0,0 l/m 34,6 km/h (5 Bft)
20.04.2010 16:41 21,6 C 18,8 C 21,4 C 31 % 0 % 1006 hPa 0,0 l/m 30,1 km/h (5 Bft)
20.04.2010 16:44 21,5 C 18,9 C 21,0 C 31 % 0 % 1006 hPa 0,0 l/m 33,2 km/h (5 Bft)
20.04.2010 16:47 21,6 C 18,9 C 21,5 C 31 % 0 % 1006 hPa 0,0 l/m 32,4 km/h (5 Bft)
20.04.2010 16:50 21,6 C 18,9 C 20,9 C 31 % 0 % 1006 hPa 0,0 l/m 34,4 km/h (5 Bft)
20.04.2010 16:53 21,5 C 18,9 C 21,0 C 31 % 0 % 1006 hPa 0,0 l/m 31,3 km/h (5 Bft)
20.04.2010 16:56 21,5 C 18,9 C 20,8 C 29 % 0 % 1006 hPa 0,0 l/m 31,3 km/h (5 Bft)
20.04.2010 16:59 21,6 C 19,1 C 20,9 C 31 % 0 % 1006 hPa 0,0 l/m 30,4 km/h (5 Bft)
20.04.2010 17:02 21,6 C 19,1 C 20,7 C 31 % 0 % 1006 hPa 0,0 l/m 30,9 km/h (5 Bft)
20.04.2010 17:05 21,5 C 19,2 C 20,7 C 29 % 0 % 1006 hPa 0,0 l/m 40,0 km/h (6 Bft)
20.04.2010 17:08 21,5 C 19,2 C 20,2 C 29 % 0 % 1006 hPa 0,0 l/m 40,6 km/h (6 Bft)
20.04.2010 17:11 21,5 C 18,9 C 19,9 C 31 % 0 % 1006 hPa 0,0 l/m 32,7 km/h (5 Bft)
20.04.2010 17:14 21,6 C 19,0 C 19,8 C 29 % 0 % 1006 hPa 0,0 l/m 29,3 km/h (5 Bft)
20.04.2010 17:17 21,6 C 19,0 C 19,8 C 30 % 0 % 1006 hPa 0,0 l/m 35,6 km/h (5 Bft)
20.04.2010 17:20 21,5 C 19,0 C 19,4 C 30 % 0 % 1006 hPa 0,0 l/m 29,1 km/h (5 Bft)
20.04.2010 17:23 21,6 C 19,2 C 19,6 C 28 % 0 % 1006 hPa 0,0 l/m 25,0 km/h (4 Bft)
20.04.2010 17:26 21,6 C 19,2 C 18,2 C 31 % 0 % 1006 hPa 0,0 l/m 30,1 km/h (5 Bft)
20.04.2010 17:29 21,6 C 19,2 C 17,0 C 31 % 0 % 1006 hPa 0,0 l/m 35,4 km/h (5 Bft)
20.04.2010 17:32 21,6 C 18,2 C 16,6 C 32 % 0 % 1006 hPa 0,0 l/m 29,7 km/h (5 Bft)
20.04.2010 17:35 21,5 C 18,0 C 16,9 C 32 % 0 % 1006 hPa 0,0 l/m 29,6 km/h (5 Bft)
20.04.2010 17:38 21,6 C 18,0 C 17,3 C 32 % 0 % 1006 hPa 0,0 l/m 27,4 km/h (4 Bft)
20.04.2010 17:41 21,5 C 18,0 C 17,6 C 33 % 0 % 1006 hPa 0,0 l/m 31,1 km/h (5 Bft)
20.04.2010 17:44 21,5 C 18,0 C 17,6 C 33 % 0 % 1007 hPa 0,0 l/m 28,9 km/h (5 Bft)
20.04.2010 17:47 21,5 C 18,1 C 17,7 C 32 % 0 % 1007 hPa 0,0 l/m 22,7 km/h (4 Bft)
20.04.2010 17:50 21,5 C 18,2 C 17,7 C 33 % 0 % 1007 hPa 0,0 l/m 22,7 km/h (4 Bft)
20.04.2010 17:53 21,5 C 18,5 C 18,3 C 32 % 0 % 1007 hPa 0,0 l/m 33,5 km/h (5 Bft)
20.04.2010 17:56 21,5 C 18,5 C 18,2 C 33 % 0 % 1007 hPa 0,0 l/m 32,6 km/h (5 Bft)
20.04.2010 17:59 21,5 C 18,4 C 17,4 C 32 % 0 % 1007 hPa 0,0 l/m 32,8 km/h (5 Bft)
20.04.2010 18:02 21,5 C 18,0 C 16,8 C 33 % 0 % 1007 hPa 0,0 l/m 27,6 km/h (4 Bft)
20.04.2010 18:05 21,5 C 17,8 C 16,8 C 34 % 0 % 1007 hPa 0,0 l/m 26,6 km/h (4 Bft)
20.04.2010 18:08 21,5 C 17,9 C 17,3 C 35 % 0 % 1007 hPa 0,0 l/m 20,8 km/h (4 Bft)
20.04.2010 18:11 21,5 C 17,9 C 17,2 C 34 % 0 % 1007 hPa 0,0 l/m 29,6 km/h (5 Bft)
20.04.2010 18:14 21,5 C 17,9 C 16,9 C 34 % 0 % 1007 hPa 0,0 l/m 27,3 km/h (4 Bft)
20.04.2010 18:17 21,5 C 17,8 C 16,8 C 36 % 0 % 1007 hPa 0,0 l/m 26,2 km/h (4 Bft)
20.04.2010 18:20 21,5 C 17,8 C 16,9 C 35 % 0 % 1007 hPa 0,0 l/m 28,1 km/h (4 Bft)
20.04.2010 18:23 21,5 C 17,8 C 16,7 C 38 % 0 % 1007 hPa 0,0 l/m 21,3 km/h (4 Bft)
20.04.2010 18:26 21,5 C 17,5 C 16,1 C 40 % 0 % 1007 hPa 0,0 l/m 20,1 km/h (4 Bft)
20.04.2010 18:29 21,5 C 17,2 C 16,4 C 40 % 0 % 1007 hPa 0,0 l/m 36,3 km/h (5 Bft)
20.04.2010 18:32 21,5 C 17,2 C 16,3 C 41 % 0 % 1007 hPa 0,0 l/m 26,5 km/h (4 Bft)
20.04.2010 18:35 21,5 C 16,8 C 15,8 C 42 % 0 % 1007 hPa 0,0 l/m 22,1 km/h (4 Bft)
20.04.2010 18:38 21,5 C 16,5 C 15,2 C 42 % 0 % 1007 hPa 0,0 l/m 23,4 km/h (4 Bft)
20.04.2010 18:41 21,5 C 16,4 C 14,9 C 44 % 0 % 1007 hPa 0,0 l/m 26,9 km/h (4 Bft)
20.04.2010 18:44 21,5 C 16,2 C 14,9 C 44 % 0 % 1007 hPa 0,0 l/m 24,7 km/h (4 Bft)
20.04.2010 18:47 21,5 C 16,2 C 14,6 C 45 % 0 % 1007 hPa 0,0 l/m 29,5 km/h (5 Bft)
20.04.2010 18:50 21,5 C 16,2 C 14,7 C 45 % 0 % 1007 hPa 0,0 l/m 29,0 km/h (5 Bft)
20.04.2010 18:53 21,5 C 16,2 C 14,7 C 45 % 0 % 1007 hPa 0,0 l/m 29,0 km/h (5 Bft)
20.04.2010 18:56 21,5 C 16,0 C 14,5 C 45 % 0 % 1007 hPa 0,0 l/m 27,2 km/h (4 Bft)
20.04.2010 18:59 21,5 C 15,9 C 14,3 C 45 % 0 % 1007 hPa 0,0 l/m 29,1 km/h (5 Bft)
20.04.2010 19:02 21,5 C 15,8 C 14,0 C 47 % 0 % 1007 hPa 0,0 l/m 20,8 km/h (4 Bft)
20.04.2010 19:05 21,4 C 15,6 C 13,8 C 47 % 0 % 1007 hPa 0,0 l/m 16,2 km/h (3 Bft)
20.04.2010 19:08 21,5 C 15,6 C 13,4 C 47 % 0 % 1007 hPa 0,0 l/m 24,7 km/h (4 Bft)
20.04.2010 19:11 21,4 C 15,4 C 13,5 C 48 % 0 % 1007 hPa 0,0 l/m 24,7 km/h (4 Bft)
20.04.2010 19:14 21,4 C 15,5 C 13,8 C 48 % 0 % 1007 hPa 0,0 l/m 19,1 km/h (3 Bft)
20.04.2010 19:17 21,5 C 15,5 C 13,8 C 48 % 0 % 1007 hPa 0,0 l/m 18,0 km/h (3 Bft)
20.04.2010 19:20 21,4 C 15,4 C 13,7 C 48 % 0 % 1007 hPa 0,0 l/m 23,6 km/h (4 Bft)
20.04.2010 19:23 21,4 C 15,4 C 13,5 C 48 % 0 % 1007 hPa 0,0 l/m 21,4 km/h (4 Bft)
20.04.2010 19:26 21,4 C 15,3 C 13,3 C 48 % 0 % 1007 hPa 0,0 l/m 27,6 km/h (4 Bft)
20.04.2010 19:29 21,4 C 15,3 C 13,2 C 49 % 0 % 1007 hPa 0,0 l/m 23,4 km/h (4 Bft)
20.04.2010 19:32 21,4 C 15,0 C 13,0 C 49 % 0 % 1007 hPa 0,0 l/m 20,8 km/h (4 Bft)
20.04.2010 19:35 21,4 C 15,0 C 12,8 C 49 % 0 % 1007 hPa 0,0 l/m 24,3 km/h (4 Bft)
20.04.2010 19:38 21,5 C 14,9 C 12,7 C 50 % 0 % 1007 hPa 0,0 l/m 26,6 km/h (4 Bft)
20.04.2010 19:41 21,5 C 14,8 C 12,7 C 50 % 0 % 1007 hPa 0,0 l/m 23,8 km/h (4 Bft)
20.04.2010 19:44 21,5 C 14,7 C 12,7 C 51 % 0 % 1007 hPa 0,0 l/m 27,1 km/h (4 Bft)
20.04.2010 19:47 21,5 C 14,6 C 12,7 C 50 % 0 % 1007 hPa 0,0 l/m 23,1 km/h (4 Bft)
20.04.2010 19:50 21,4 C 14,5 C 12,6 C 51 % 0 % 1007 hPa 0,0 l/m 25,3 km/h (4 Bft)
20.04.2010 19:53 21,4 C 14,5 C 12,5 C 51 % 0 % 1007 hPa 0,0 l/m 16,2 km/h (3 Bft)
20.04.2010 19:56 21,4 C 14,3 C 12,4 C 53 % 0 % 1007 hPa 0,0 l/m 17,6 km/h (3 Bft)
20.04.2010 19:59 21,4 C 14,2 C 12,2 C 54 % 0 % 1007 hPa 0,0 l/m 20,0 km/h (4 Bft)
20.04.2010 20:02 21,4 C 14,0 C 12,1 C 54 % 0 % 1007 hPa 0,0 l/m 18,0 km/h (3 Bft)
20.04.2010 20:05 21,4 C 14,0 C 11,9 C 54 % 0 % 1007 hPa 0,0 l/m 23,1 km/h (4 Bft)
20.04.2010 20:08 21,4 C 13,8 C 11,8 C 55 % 0 % 1007 hPa 0,0 l/m 20,1 km/h (4 Bft)
20.04.2010 20:11 21,4 C 13,6 C 11,7 C 56 % 0 % 1007 hPa 0,0 l/m 19,7 km/h (3 Bft)
20.04.2010 20:14 21,4 C 13,6 C 11,6 C 56 % 0 % 1007 hPa 0,0 l/m 19,7 km/h (3 Bft)
20.04.2010 20:17 21,6 C 13,6 C 11,8 C 56 % 0 % 1007 hPa 0,0 l/m 20,6 km/h (4 Bft)
20.04.2010 20:20 21,6 C 13,6 C 11,6 C 56 % 0 % 1007 hPa 0,0 l/m 20,3 km/h (4 Bft)
20.04.2010 20:23 21,6 C 13,5 C 11,5 C 56 % 0 % 1007 hPa 0,0 l/m 20,3 km/h (4 Bft)
20.04.2010 20:26 21,8 C 13,5 C 11,4 C 57 % 0 % 1007 hPa 0,0 l/m 19,3 km/h (3 Bft)
20.04.2010 20:29 21,8 C 13,3 C 11,3 C 58 % 0 % 1008 hPa 0,0 l/m 16,7 km/h (3 Bft)
20.04.2010 20:32 21,8 C 13,2 C 11,2 C 58 % 0 % 1008 hPa 0,0 l/m 27,2 km/h (4 Bft)
20.04.2010 20:35 21,8 C 13,2 C 11,3 C 58 % 0 % 1008 hPa 0,0 l/m 27,2 km/h (4 Bft)
20.04.2010 20:38 22,0 C 13,2 C 11,2 C 58 % 0 % 1008 hPa 0,0 l/m 15,6 km/h (3 Bft)
20.04.2010 20:41 22,1 C 13,1 C 11,1 C 59 % 0 % 1008 hPa 0,0 l/m 14,3 km/h (3 Bft)
20.04.2010 20:44 22,1 C 12,9 C 10,9 C 59 % 0 % 1008 hPa 0,0 l/m 17,7 km/h (3 Bft)
20.04.2010 20:47 22,1 C 12,9 C 10,9 C 60 % 0 % 1008 hPa 0,0 l/m 18,0 km/h (3 Bft)
20.04.2010 20:50 22,1 C 12,8 C 10,8 C 60 % 0 % 1008 hPa 0,0 l/m 13,3 km/h (3 Bft)
20.04.2010 20:53 22,1 C 12,6 C 10,8 C 60 % 0 % 1008 hPa 0,0 l/m 15,1 km/h (3 Bft)
20.04.2010 20:56 22,2 C 12,6 C 10,8 C 61 % 0 % 1008 hPa 0,0 l/m 16,6 km/h (3 Bft)
20.04.2010 20:59 22,2 C 12,5 C 10,8 C 61 % 0 % 1008 hPa 0,0 l/m 13,4 km/h (3 Bft)
20.04.2010 21:02 22,2 C 12,4 C 10,7 C 61 % 0 % 1008 hPa 0,0 l/m 22,0 km/h (4 Bft)
20.04.2010 21:05 22,2 C 12,4 C 10,7 C 61 % 0 % 1008 hPa 0,0 l/m 15,0 km/h (3 Bft)
20.04.2010 21:08 22,2 C 12,3 C 10,8 C 62 % 0 % 1008 hPa 0,0 l/m 16,1 km/h (3 Bft)
20.04.2010 21:11 22,2 C 12,2 C 10,9 C 63 % 0 % 1008 hPa 0,0 l/m 16,7 km/h (3 Bft)
20.04.2010 21:14 22,1 C 12,2 C 10,9 C 64 % 0 % 1008 hPa 0,0 l/m 16,7 km/h (3 Bft)
20.04.2010 21:17 22,1 C 12,1 C 10,7 C 64 % 0 % 1008 hPa 0,0 l/m 12,8 km/h (3 Bft)
20.04.2010 21:20 22,1 C 12,0 C 10,6 C 65 % 0 % 1008 hPa 0,0 l/m 13,0 km/h (3 Bft)
20.04.2010 21:23 22,1 C 11,9 C 10,4 C 65 % 0 % 1008 hPa 0,0 l/m 14,4 km/h (3 Bft)
20.04.2010 21:26 22,1 C 11,8 C 10,4 C 65 % 0 % 1008 hPa 0,0 l/m 15,8 km/h (3 Bft)
20.04.2010 21:29 22,0 C 11,8 C 10,4 C 66 % 0 % 1008 hPa 0,0 l/m 15,1 km/h (3 Bft)
20.04.2010 21:32 22,1 C 11,8 C 10,3 C 66 % 0 % 1008 hPa 0,0 l/m 19,6 km/h (3 Bft)
20.04.2010 21:35 22,0 C 11,8 C 10,3 C 66 % 0 % 1008 hPa 0,0 l/m 19,6 km/h (3 Bft)
20.04.2010 21:38 22,0 C 11,7 C 10,3 C 67 % 0 % 1008 hPa 0,0 l/m 19,6 km/h (3 Bft)
20.04.2010 21:41 22,0 C 11,6 C 10,2 C 67 % 0 % 1008 hPa 0,0 l/m 13,3 km/h (3 Bft)
20.04.2010 21:44 22,0 C 11,6 C 10,2 C 67 % 0 % 1008 hPa 0,0 l/m 10,8 km/h (2 Bft)
20.04.2010 21:47 22,0 C 11,6 C 10,1 C 67 % 0 % 1008 hPa 0,0 l/m 13,6 km/h (3 Bft)
20.04.2010 21:50 22,0 C 11,6 C 10,1 C 67 % 0 % 1008 hPa 0,0 l/m 17,6 km/h (3 Bft)
20.04.2010 21:53 21,9 C 11,5 C 10,0 C 68 % 0 % 1008 hPa 0,0 l/m 11,0 km/h (2 Bft)
20.04.2010 21:56 21,9 C 11,6 C 10,1 C 67 % 0 % 1008 hPa 0,0 l/m 15,5 km/h (3 Bft)
20.04.2010 21:59 21,9 C 11,6 C 10,2 C 68 % 0 % 1008 hPa 0,0 l/m 15,6 km/h (3 Bft)
20.04.2010 22:02 21,8 C 11,6 C 10,1 C 68 % 0 % 1008 hPa 0,0 l/m 11,9 km/h (2 Bft)
20.04.2010 22:05 21,8 C 11,5 C 10,1 C 68 % 0 % 1008 hPa 0,0 l/m 14,8 km/h (3 Bft)
20.04.2010 22:08 21,8 C 11,5 C 10,0 C 68 % 0 % 1008 hPa 0,0 l/m 10,8 km/h (2 Bft)
20.04.2010 22:11 21,8 C 11,4 C 9,9 C 69 % 0 % 1008 hPa 0,0 l/m 10,0 km/h (2 Bft)
20.04.2010 22:14 21,8 C 11,4 C 9,9 C 69 % 0 % 1008 hPa 0,0 l/m 12,8 km/h (3 Bft)
20.04.2010 22:17 21,8 C 11,4 C 9,8 C 69 % 0 % 1008 hPa 0,0 l/m 12,8 km/h (3 Bft)
20.04.2010 22:20 21,8 C 11,2 C 9,8 C 69 % 0 % 1008 hPa 0,0 l/m 11,1 km/h (2 Bft)
20.04.2010 22:23 21,8 C 11,2 C 9,8 C 69 % 0 % 1008 hPa 0,0 l/m 13,0 km/h (3 Bft)
20.04.2010 22:26 21,8 C 11,2 C 9,7 C 69 % 0 % 1008 hPa 0,0 l/m 12,0 km/h (2 Bft)
20.04.2010 22:29 21,8 C 11,2 C 9,7 C 70 % 0 % 1009 hPa 0,0 l/m 14,0 km/h (3 Bft)
20.04.2010 22:32 21,8 C 11,2 C 9,6 C 70 % 0 % 1009 hPa 0,0 l/m 12,8 km/h (3 Bft)
20.04.2010 22:35 21,8 C 11,2 C 9,6 C 70 % 0 % 1009 hPa 0,0 l/m 13,5 km/h (3 Bft)
20.04.2010 22:38 21,8 C 11,2 C 9,6 C 70 % 0 % 1009 hPa 0,0 l/m 13,5 km/h (3 Bft)
20.04.2010 22:41 21,8 C 11,2 C 9,7 C 70 % 0 % 1009 hPa 0,0 l/m 12,9 km/h (3 Bft)
20.04.2010 22:44 21,7 C 11,2 C 9,6 C 70 % 0 % 1009 hPa 0,0 l/m 12,0 km/h (2 Bft)
20.04.2010 22:47 21,7 C 11,2 C 9,6 C 70 % 0 % 1009 hPa 0,0 l/m 11,6 km/h (2 Bft)
20.04.2010 22:50 21,7 C 11,2 C 9,6 C 70 % 0 % 1008 hPa 0,0 l/m 15,4 km/h (3 Bft)
20.04.2010 22:53 21,7 C 11,2 C 9,6 C 70 % 0 % 1008 hPa 0,0 l/m 15,4 km/h (3 Bft)
20.04.2010 22:56 21,7 C 11,2 C 9,7 C 69 % 0 % 1008 hPa 0,0 l/m 17,5 km/h (3 Bft)
20.04.2010 22:59 21,7 C 11,2 C 9,7 C 70 % 0 % 1008 hPa 0,0 l/m 13,0 km/h (3 Bft)
20.04.2010 23:02 21,8 C 11,2 C 9,6 C 70 % 0 % 1008 hPa 0,0 l/m 12,8 km/h (3 Bft)
20.04.2010 23:05 21,7 C 11,2 C 9,6 C 70 % 0 % 1008 hPa 0,0 l/m 13,2 km/h (3 Bft)
20.04.2010 23:08 21,8 C 11,2 C 9,7 C 70 % 0 % 1008 hPa 0,0 l/m 13,3 km/h (3 Bft)
20.04.2010 23:11 21,8 C 11,2 C 9,5 C 70 % 0 % 1008 hPa 0,0 l/m 11,2 km/h (2 Bft)
20.04.2010 23:14 21,8 C 11,1 C 9,5 C 70 % 0 % 1009 hPa 0,0 l/m 18,1 km/h (3 Bft)
20.04.2010 23:17 21,8 C 11,1 C 9,6 C 70 % 0 % 1009 hPa 0,0 l/m 16,1 km/h (3 Bft)
20.04.2010 23:20 21,8 C 11,0 C 9,5 C 70 % 0 % 1008 hPa 0,0 l/m 13,1 km/h (3 Bft)
20.04.2010 23:23 21,8 C 11,0 C 9,5 C 70 % 0 % 1008 hPa 0,0 l/m 16,3 km/h (3 Bft)
20.04.2010 23:26 21,8 C 11,2 C 9,6 C 70 % 0 % 1008 hPa 0,0 l/m 20,4 km/h (4 Bft)
20.04.2010 23:29 21,8 C 11,1 C 9,5 C 70 % 0 % 1008 hPa 0,0 l/m 14,4 km/h (3 Bft)
20.04.2010 23:32 21,8 C 11,1 C 9,6 C 70 % 0 % 1008 hPa 0,0 l/m 17,6 km/h (3 Bft)
20.04.2010 23:35 21,8 C 11,1 C 9,6 C 70 % 0 % 1008 hPa 0,0 l/m 14,1 km/h (3 Bft)
20.04.2010 23:38 21,8 C 11,1 C 9,6 C 70 % 0 % 1008 hPa 0,0 l/m 15,2 km/h (3 Bft)
20.04.2010 23:41 21,8 C 11,0 C 9,6 C 70 % 0 % 1008 hPa 0,0 l/m 11,9 km/h (2 Bft)
20.04.2010 23:44 21,8 C 11,0 C 9,4 C 71 % 0 % 1008 hPa 0,0 l/m 14,2 km/h (3 Bft)
20.04.2010 23:47 21,8 C 10,9 C 9,4 C 71 % 0 % 1008 hPa 0,0 l/m 13,5 km/h (3 Bft)
20.04.2010 23:50 21,8 C 10,9 C 9,4 C 71 % 0 % 1008 hPa 0,0 l/m 15,1 km/h (3 Bft)
20.04.2010 23:53 21,8 C 10,9 C 9,4 C 71 % 0 % 1008 hPa 0,0 l/m 12,1 km/h (2 Bft)
20.04.2010 23:56 21,8 C 10,9 C 9,3 C 71 % 0 % 1008 hPa 0,0 l/m 12,8 km/h (3 Bft)
20.04.2010 23:59 21,8 C 10,8 C 9,2 C 71 % 0 % 1008 hPa 0,0 l/m 14,9 km/h (3 Bft)
_ Min-Zeit 03:32 06:41 06:17 17:23 - 16:32 - 00:01
Minimum _ 21,3 C 5,4 C 4,4 C 28 % - 1006 hPa - 0,0 km/h (0 Bft)
_ Max-Zeit 06:14 17:05 10:29 07:02 00:01 10:02 00:01 15:47
Maximum _ 23,6 C 19,2 C 39,3 C 85 % 0 % 1009 hPa 0,0 l/m 45,8 km/h
NW (6 Bft)
Durchschnitt _ 21,8 C 12,4 C 15,0 C 61 % #0 min. 1008 hPa #0,0 l/m 13,2 km/h (3 Bft)